This is the latest recevied weather packets stored in our database for station/object KGRR-WX. If no packets are shown the sender has not sent any weather packets the latest 10 day(s).
| Time | Temp. | Humidity | Pressure | Rain* | Wind** | Luminosity | Snow |
|---|---|---|---|---|---|---|---|
| 1777468504 | 9.44° C | 78% | 985.7 hPa | 0 mm | - | - | - |
| 1777467623 | 8.89° C | 78% | 985.7 hPa | 0 mm | - | - | - |
| 1777466704 | 8.33° C | 82% | 985.8 hPa | 0 mm | - | - | - |
| 1777465821 | 8.89° C | 84% | 985.6 hPa | 0 mm | - | - | - |
| 1777464904 | 8.89° C | 84% | 985.6 hPa | 0 mm | - | - | - |
| 1777464019 | 8.89° C | 84% | 985.6 hPa | 0 mm | - | - | - |
| 1777463105 | 8.89° C | 88% | 985 hPa | 0 mm | - | - | - |
| 1777462215 | 8.89° C | 88% | 984.8 hPa | 0 mm | - | - | - |
| 1777461304 | 8.33° C | 88% | 984.8 hPa | 0 mm | - | - | - |
| 1777460424 | 8.33° C | 88% | 984.8 hPa | 0 mm | - | - | - |
| 1777459504 | 8.33° C | 90% | 984.6 hPa | 0 mm | - | - | - |
| 1777458621 | 8.33° C | 91% | 984.5 hPa | 0 mm | - | - | - |
| 1777457704 | 8.33° C | 91% | 984.5 hPa | 0 mm | - | - | - |
| 1777456820 | 8.33° C | 91% | 984.5 hPa | 0 mm | - | - | - |
| 1777455905 | 8.33° C | 90% | 984.6 hPa | 0 mm | - | - | - |
| 1777455020 | 7.78° C | 90% | 984.6 hPa | 0 mm | - | - | - |
| 1777454105 | 7.78° C | 90% | 984.6 hPa | 0 mm | - | - | - |
| 1777453225 | 7.78° C | 90% | 984.6 hPa | 0 mm | - | - | - |
| 1777452305 | 8.33° C | 86% | 984 hPa | 0 mm | - | - | - |
| 1777451421 | 8.89° C | 85% | 983.5 hPa | 0 mm | - | - | - |
| 1777450504 | 8.89° C | 85% | 983.5 hPa | 0 mm | - | - | - |
| 1777449625 | 8.89° C | 85% | 983.5 hPa | 0 mm | - | - | - |
| 1777448704 | 8.89° C | 88% | 984 hPa | 0 mm | - | - | - |
| 1777447821 | 8.89° C | 88% | 984 hPa | 0 mm | - | - | - |
| 1777446904 | 8.33° C | 88% | 983.9 hPa | 0 mm | - | - | - |
* Rain latest hour (hover to see other rain measurements)
** Current wind speed in m/s (hover to see current wind gust speed)